• In Hungary
  • List of Countries
  • For 7 days
  • Water Temperature
  • Satellite Maps
  • Weather Map
  • News
  • Weather Widgets
  • user-avatar
    Login

    Hourly Weather Naftalan

    Today, 23 September, Sunday

    Time Temperature Precipitation Wind Pressure Humidity
    00:00 +25°C° 0 mm 2 mps 765 mmHg 72%
    01:00 +24°C° 0.1 mm 2 mps 765 mmHg 73%
    02:00 +24°C° 0.1 mm 3 mps 765 mmHg 74%
    03:00 +22°C° 0 mm 3 mps 764 mmHg 75%
    04:00 +23°C° 0.1 mm 2 mps 765 mmHg 75%
    05:00 +23°C° 0.1 mm 2 mps 765 mmHg 75%
    06:00 +23°C° 0.1 mm 2 mps 765 mmHg 76%
    07:00 +24°C° 0.2 mm 2 mps 765 mmHg 70%
    08:00 +26°C° 0.2 mm 2 mps 765 mmHg 63%
    09:00 +27°C° 0.2 mm 2 mps 765 mmHg 57%
    10:00 +27°C° 0 mm 2 mps 765 mmHg 55%
    11:00 +28°C° 0 mm 2 mps 765 mmHg 52%
    12:00 +29°C° 0 mm 2 mps 765 mmHg 49%
    13:00 +29°C° 0 mm 2 mps 764 mmHg 49%
    14:00 +29°C° 0 mm 3 mps 764 mmHg 48%
    15:00 +29°C° 0 mm 3 mps 764 mmHg 47%
    16:00 +28°C° 0 mm 3 mps 764 mmHg 52%
    17:00 +27°C° 0 mm 3 mps 764 mmHg 56%
    18:00 +26°C° 0 mm 4 mps 764 mmHg 60%
    19:00 +26°C° 0 mm 3 mps 764 mmHg 63%
    20:00 +25°C° 0 mm 3 mps 764 mmHg 65%
    21:00 +25°C° 0 mm 2 mps 764 mmHg 67%
    22:00 +24°C° 0 mm 2 mps 764 mmHg 69%
    23:00 +24°C° 0 mm 1 mps 764 mmHg 70%

    Tomorrow, 24 September, Monday

    Time Temperature Precipitation Wind Pressure Humidity
    00:00 +22°C° 0 mm 0 mps 764 mmHg 72%
    01:00 +24°C° 0 mm 1 mps 764 mmHg 72%
    02:00 +23°C° 0 mm 1 mps 764 mmHg 72%
    03:00 +23°C° 0 mm 2 mps 764 mmHg 72%
    04:00 +23°C° 0 mm 2 mps 764 mmHg 73%
    05:00 +23°C° 0 mm 2 mps 765 mmHg 73%
    06:00 +23°C° 0 mm 2 mps 765 mmHg 74%
    07:00 +25°C° 0 mm 2 mps 765 mmHg 67%
    08:00 +26°C° 0 mm 2 mps 765 mmHg 60%
    09:00 +28°C° 0 mm 3 mps 766 mmHg 53%
    10:00 +29°C° 0 mm 3 mps 766 mmHg 48%
    11:00 +30°C° 0 mm 2 mps 766 mmHg 43%
    12:00 +31°C° 0 mm 2 mps 766 mmHg 38%
    13:00 +32°C° 0 mm 2 mps 765 mmHg 37%
    14:00 +33°C° 0 mm 3 mps 765 mmHg 36%
    15:00 +33°C° 0 mm 4 mps 765 mmHg 34%
    16:00 +30°C° 0 mm 4 mps 765 mmHg 41%
    17:00 +29°C° 0 mm 3 mps 765 mmHg 48%
    18:00 +27°C° 0 mm 3 mps 765 mmHg 55%
    19:00 +26°C° 0 mm 3 mps 765 mmHg 59%
    20:00 +26°C° 0 mm 2 mps 766 mmHg 63%
    21:00 +25°C° 0 mm 2 mps 766 mmHg 67%
    22:00 +25°C° 0 mm 2 mps 765 mmHg 69%
    23:00 +25°C° 0 mm 1 mps 765 mmHg 70%

    Day after tomorrow, 25 September, Tuesday

    Time Temperature Precipitation Wind Pressure Humidity
    00:00 +24°C° 0 mm 1 mps 765 mmHg 72%
    01:00 +24°C° 0 mm 1 mps 764 mmHg 73%
    02:00 +24°C° 0 mm 1 mps 764 mmHg 73%
    03:00 +23°C° 0 mm 2 mps 764 mmHg 74%
    04:00 +23°C° 0 mm 2 mps 764 mmHg 75%
    05:00 +23°C° 0 mm 2 mps 764 mmHg 75%
    06:00 +23°C° 0 mm 2 mps 764 mmHg 76%
    07:00 +25°C° 0 mm 2 mps 764 mmHg 68%
    08:00 +27°C° 0 mm 3 mps 764 mmHg 59%
    09:00 +29°C° 0 mm 3 mps 764 mmHg 51%
    10:00 +30°C° 0 mm 3 mps 763 mmHg 46%
    11:00 +31°C° 0 mm 3 mps 763 mmHg 42%
    12:00 +33°C° 0 mm 4 mps 762 mmHg 37%
    13:00 +33°C° 0 mm 4 mps 761 mmHg 38%
    14:00 +33°C° 0 mm 5 mps 761 mmHg 39%
    15:00 +33°C° 0 mm 5 mps 760 mmHg 40%
    16:00 +30°C° 0 mm 5 mps 761 mmHg 47%
    17:00 +28°C° 0 mm 5 mps 761 mmHg 54%
    18:00 +27°C° 0 mm 5 mps 761 mmHg 61%
    19:00 +26°C° 0 mm 5 mps 761 mmHg 65%
    20:00 +26°C° 0 mm 5 mps 761 mmHg 68%
    21:00 +25°C° 0 mm 5 mps 762 mmHg 72%
    22:00 +25°C° 0 mm 4 mps 762 mmHg 73%
    23:00 +25°C° 0 mm 4 mps 761 mmHg 75%

    26 September, Wednesday

    Time Temperature Precipitation Wind Pressure Humidity
    00:00 +25°C° 0 mm 3 mps 761 mmHg 77%
    01:00 +24°C° 0 mm 2 mps 761 mmHg 78%
    02:00 +24°C° 0 mm 2 mps 761 mmHg 78%
    03:00 +24°C° 0 mm 1 mps 761 mmHg 79%
    04:00 +24°C° 0 mm 1 mps 762 mmHg 79%
    05:00 +24°C° 0 mm 1 mps 762 mmHg 78%
    06:00 +24°C° 0 mm 1 mps 762 mmHg 78%
    07:00 +25°C° 0 mm 1 mps 763 mmHg 71%
    08:00 +27°C° 0 mm 2 mps 763 mmHg 63%
    09:00 +28°C° 0 mm 2 mps 764 mmHg 56%
    10:00 +29°C° 0 mm 4 mps 764 mmHg 54%
    11:00 +29°C° 0 mm 6 mps 764 mmHg 51%
    12:00 +31°C° 0 mm 8 mps 764 mmHg 49%
    13:00 +29°C° 0 mm 9 mps 764 mmHg 51%
    14:00 +28°C° 0 mm 9 mps 764 mmHg 52%
    15:00 +28°C° 0 mm 10 mps 764 mmHg 54%
    16:00 +26°C° 0 mm 11 mps 764 mmHg 57%
    17:00 +24°C° 0 mm 11 mps 765 mmHg 60%
    18:00 +23°C° 0 mm 11 mps 765 mmHg 64%
    19:00 +22°C° 0 mm 11 mps 766 mmHg 64%
    20:00 +22°C° 0 mm 11 mps 766 mmHg 64%
    21:00 +21°C° 0 mm 12 mps 767 mmHg 64%
    22:00 +21°C° 0 mm 11 mps 766 mmHg 64%
    23:00 +21°C° 0 mm 11 mps 766 mmHg 64%

    27 September, Thursday

    Time Temperature Precipitation Wind Pressure Humidity
    00:00 +21°C° 0 mm 10 mps 766 mmHg 64%
    01:00 +21°C° 0 mm 10 mps 766 mmHg 65%
    02:00 +21°C° 0 mm 10 mps 766 mmHg 65%
    03:00 +21°C° 0 mm 10 mps 766 mmHg 66%
    04:00 +21°C° 0.1 mm 9 mps 767 mmHg 67%
    05:00 +19°C° 0.1 mm 9 mps 767 mmHg 68%
    06:00 +19°C° 0.1 mm 9 mps 767 mmHg 68%
    07:00 +21°C° 0.1 mm 9 mps 767 mmHg 66%
    08:00 +22°C° 0.1 mm 9 mps 768 mmHg 63%
    09:00 +22°C° 0.1 mm 9 mps 768 mmHg 61%
    10:00 +23°C° 0 mm 8 mps 768 mmHg 60%
    11:00 +23°C° 0 mm 8 mps 768 mmHg 60%
    12:00 +23°C° 0 mm 8 mps 768 mmHg 59%
    13:00 +23°C° 0 mm 8 mps 768 mmHg 59%
    14:00 +23°C° 0 mm 8 mps 768 mmHg 60%
    15:00 +23°C° 0 mm 8 mps 768 mmHg 60%
    16:00 +23°C° 0 mm 8 mps 768 mmHg 64%
    17:00 +22°C° 0 mm 8 mps 768 mmHg 67%
    18:00 +21°C° 0 mm 8 mps 768 mmHg 71%
    19:00 +21°C° 0.1 mm 8 mps 769 mmHg 72%
    20:00 +21°C° 0.1 mm 7 mps 769 mmHg 72%
    21:00 +21°C° 0.1 mm 7 mps 769 mmHg 73%
    22:00 +21°C° 0.1 mm 7 mps 769 mmHg 73%
    23:00 +21°C° 0.1 mm 6 mps 769 mmHg 73%

    28 September, Friday

    Time Temperature Precipitation Wind Pressure Humidity
    00:00 +21°C° 0.1 mm 6 mps 768 mmHg 74%
    01:00 +21°C° 0.1 mm 6 mps 768 mmHg 74%
    02:00 +21°C° 0.1 mm 5 mps 768 mmHg 75%
    03:00 +21°C° 0.1 mm 5 mps 768 mmHg 76%
    04:00 +21°C° 0 mm 5 mps 768 mmHg 76%
    05:00 +21°C° 0 mm 5 mps 768 mmHg 76%
    06:00 +21°C° 0 mm 4 mps 768 mmHg 76%
    07:00 +21°C° 0.1 mm 4 mps 768 mmHg 73%
    08:00 +22°C° 0.1 mm 4 mps 768 mmHg 71%
    09:00 +22°C° 0.1 mm 4 mps 768 mmHg 68%
    10:00 +23°C° 0.1 mm 4 mps 768 mmHg 66%
    11:00 +23°C° 0.1 mm 4 mps 768 mmHg 64%
    12:00 +25°C° 0.1 mm 4 mps 767 mmHg 63%
    13:00 +26°C° 0.1 mm 4 mps 767 mmHg 63%
    14:00 +26°C° 0.1 mm 4 mps 766 mmHg 63%
    15:00 +27°C° 0.1 mm 4 mps 766 mmHg 63%
    16:00 +26°C° 0 mm 4 mps 766 mmHg 68%
    17:00 +25°C° 0 mm 5 mps 766 mmHg 73%
    18:00 +23°C° 0 mm 5 mps 766 mmHg 78%
    19:00 +23°C° 0 mm 5 mps 766 mmHg 79%
    20:00 +23°C° 0 mm 5 mps 767 mmHg 80%
    21:00 +23°C° 0 mm 4 mps 767 mmHg 81%
    22:00 +23°C° 0 mm 4 mps 766 mmHg 82%
    23:00 +23°C° 0 mm 4 mps 766 mmHg 82%
    Show more